Haines, AK

10:45 AM AKDT on March 27, 2017 (GMT -0800)
Haines

Weather History for PAHN - February, 2013

Change the Weather History Date:

Wednesday, February 27, 2013

  Actual Average Record
Temperature  
Mean Temperature 36 °F -  
Max Temperature 39 °F 33 °F 52 °F (1991)
Min Temperature 32 °F 24 °F 5 °F (2007)
Degree Days  
Heating Degree Days 30    
Moisture  
Dew Point 31 °F    
Average Humidity 87    
Maximum Humidity 100    
Minimum Humidity 73    
Precipitation  
Precipitation 0.32 in - - ()
Sea Level Pressure  
Sea Level Pressure 29.61 in    
Wind  
Wind Speed 7 mph (ESE)    
Max Wind Speed 14 mph    
Max Gust Speed 21 mph    
Visibility 5 miles    
Events Rain , Snow    
Averages and records for this station are not official NWS values.
T = Trace of Precipitation, MM = Missing Value Source: NWS Daily Summary

Daily Weather History Graph

Daily Weather History Graph

Search for Another Location

Airport or City:

Trip Planner

Search our weather history database for the weather conditions in past years. The results will help you decide how hot, cold, wet, or windy it might be!

Date:

Astronomy

Feb. 27, 2013 Rise Set
Actual Time 7:03 AM AKST 5:27 PM AKST
Civil Twilight 6:22 AM AKST 6:08 PM AKST
Nautical Twilight 5:35 AM AKST 6:55 PM AKST
Astronomical Twilight 4:47 AM AKST 7:43 PM AKST
Moon 8:46 PM AKST 7:02 AM AKST
Length of Visible Light 11h 45m
Length of Day
10h 23m
Waning Gibbous, 95% of the Moon is Illuminated
Feb 27
Waning Gibbous
Mar 4
Last Quarter
Mar 11
New
Mar 19
First Quarter
Mar 27
Full

Hourly Weather History & Observations

Time (AKST) Temp. Windchill Dew Point Humidity Pressure Visibility Wind Dir Wind Speed Gust Speed Precip Events Conditions
12:18 AM 33.8 °F 25.8 °F 28.4 °F 81% 29.66 in 4.0 mi ESE 10.4 mph - 0.00 in Snow Light Snow
12:37 AM 33.8 °F 25.3 °F 28.4 °F 81% 29.65 in 2.0 mi ESE 11.5 mph - 0.00 in Snow Light Snow
12:49 AM 33.8 °F 27.0 °F 28.4 °F 81% 29.65 in 4.0 mi ESE 8.1 mph 17.3 mph 0.00 in Snow Light Snow
12:54 AM 33.1 °F 27.7 °F 28.9 °F 85% 29.67 in 5.0 mi Variable 5.8 mph - 0.00 in Snow Light Snow
1:12 AM 33.8 °F - 28.4 °F 81% 29.65 in 2.0 mi Calm Calm - 0.00 in Snow Light Snow
1:26 AM 33.8 °F 27.0 °F 28.4 °F 81% 29.64 in 4.0 mi South 8.1 mph 19.6 mph 0.00 in Snow Light Snow
1:42 AM 33.8 °F 25.3 °F 28.4 °F 81% 29.64 in 2.5 mi SSE 11.5 mph 16.1 mph 0.00 in Snow Light Snow
1:51 AM 33.8 °F 25.8 °F 28.4 °F 81% 29.64 in 3.0 mi SE 10.4 mph 16.1 mph 0.00 in Snow Light Snow
1:54 AM 33.1 °F 26.1 °F 28.9 °F 85% 29.65 in 4.0 mi SSE 8.1 mph - 0.00 in Snow Light Snow
2:32 AM 33.8 °F 27.0 °F 28.4 °F 81% 29.63 in 2.5 mi SE 8.1 mph 16.1 mph 0.00 in Snow Light Snow
2:52 AM 33.8 °F - 30.2 °F 87% 29.63 in 1.2 mi Calm Calm - 0.00 in Snow Light Snow
2:54 AM 34.0 °F 31.0 °F 30.0 °F 85% 29.64 in 1.2 mi Variable 3.5 mph - 0.00 in Snow Light Snow
3:14 AM 35.6 °F 31.7 °F 30.2 °F 81% 29.63 in 1.8 mi Variable 4.6 mph - 0.01 in Snow Light Snow
3:38 AM 33.8 °F 30.8 °F 30.2 °F 87% 29.62 in 2.5 mi ESE 3.5 mph - 0.01 in Snow Light Snow
3:47 AM 33.8 °F 28.6 °F 30.2 °F 87% 29.62 in 3.0 mi East 5.8 mph - 0.02 in Snow Light Snow
3:54 AM 35.1 °F 32.2 °F 30.0 °F 82% 29.63 in 4.0 mi Variable 3.5 mph - 0.02 in Snow Light Snow
4:29 AM 35.6 °F 30.7 °F 30.2 °F 81% 29.63 in 3.0 mi Variable 5.8 mph - 0.01 in Snow Light Snow
4:52 AM 33.8 °F 27.7 °F 30.2 °F 87% 29.63 in 1.8 mi ESE 6.9 mph 19.6 mph 0.03 in Snow Light Snow
4:54 AM 33.1 °F 24.4 °F 30.9 °F 92% 29.64 in 1.5 mi SE 11.5 mph 19.6 mph 0.03 in Snow Light Snow
5:03 AM 33.8 °F 26.4 °F 30.2 °F 87% 29.63 in 3.0 mi ESE 9.2 mph - 0.00 in Snow Light Snow
5:31 AM 33.8 °F 27.0 °F 30.2 °F 87% 29.63 in 2.5 mi East 8.1 mph 19.6 mph 0.02 in Snow Light Snow
5:54 AM 35.1 °F 27.4 °F 30.9 °F 85% 29.64 in 3.0 mi East 10.4 mph - 0.03 in Snow Light Snow
6:54 AM 33.1 °F 26.9 °F 30.9 °F 92% 29.64 in 5.0 mi East 6.9 mph - 0.02 in Snow Light Snow
7:37 AM 35.6 °F 29.9 °F 32.0 °F 87% 29.63 in 2.5 mi East 6.9 mph - 0.01 in Snow Light Snow
7:46 AM 35.6 °F 29.9 °F 32.0 °F 87% 29.63 in 4.0 mi East 6.9 mph - 0.02 in Snow Light Snow
7:54 AM 35.1 °F 28.6 °F 32.0 °F 89% 29.64 in 5.0 mi East 8.1 mph - 0.02 in Snow Light Snow
8:54 AM 36.0 °F 33.3 °F 32.0 °F 86% 29.64 in 6.0 mi Variable 3.5 mph - 0.01 in Snow Light Snow
9:54 AM 37.0 °F 31.0 °F 32.0 °F 82% 29.64 in 7.0 mi ESE 8.1 mph - 0.00 in   Overcast
10:54 AM 37.0 °F 30.4 °F 32.0 °F 82% 29.62 in 10.0 mi East 9.2 mph - 0.00 in   Overcast
11:17 AM 37.4 °F 28.9 °F 32.0 °F 81% 29.61 in 10.0 mi ESE 13.8 mph 20.7 mph 0.00 in Rain Light Rain
11:54 AM 39.0 °F 31.4 °F 30.9 °F 73% 29.61 in 10.0 mi East 12.7 mph 19.6 mph 0.00 in Rain Light Rain
12:54 PM 37.9 °F 32.7 °F 30.9 °F 76% 29.59 in 10.0 mi Variable 6.9 mph - 0.00 in Rain Light Rain
1:30 PM 35.6 °F 29.2 °F 30.2 °F 81% 29.58 in 9.0 mi South 8.1 mph - 0.00 in Snow Light Snow
1:38 PM 33.8 °F 27.0 °F 30.2 °F 87% 29.58 in 7.0 mi South 8.1 mph - 0.00 in Snow Light Snow
1:54 PM 35.1 °F - 30.0 °F 82% 29.58 in 8.0 mi Calm Calm - 0.00 in Snow Light Snow
2:15 PM 35.6 °F 32.8 °F 32.0 °F 87% 29.57 in 10.0 mi ENE 3.5 mph - 0.00 in Snow Light Snow
2:35 PM 35.6 °F 32.8 °F 32.0 °F 87% 29.56 in 8.0 mi ENE 3.5 mph - 0.00 in Snow Light Snow
2:45 PM 35.6 °F - 33.8 °F 93% 29.55 in 8.0 mi Calm Calm - 0.00 in Snow Light Snow
2:54 PM 35.1 °F - 32.0 °F 89% 29.56 in 10.0 mi Calm Calm - 0.00 in   Overcast
3:54 PM 36.0 °F - 33.1 °F 89% 29.54 in 10.0 mi Calm Calm - 0.00 in   Overcast
4:54 PM 36.0 °F - 32.0 °F 86% 29.54 in 10.0 mi Calm Calm - N/A   Overcast
5:54 PM 35.1 °F - 33.1 °F 92% 29.55 in 10.0 mi Calm Calm - 0.00 in   Overcast
6:54 PM 36.0 °F - 32.0 °F 86% 29.52 in 10.0 mi Calm Calm - 0.00 in   Overcast
7:54 PM 34.0 °F - 33.1 °F 96% 29.53 in 10.0 mi Calm Calm - N/A   Overcast
8:54 PM 34.0 °F - 33.1 °F 96% 29.54 in 10.0 mi Calm Calm - 0.00 in   Overcast
9:41 PM 33.8 °F - 33.8 °F 100% 29.56 in 10.0 mi Calm Calm - 0.00 in Rain Light Rain
9:54 PM 33.1 °F 30.0 °F 32.0 °F 96% 29.58 in 4.0 mi East 3.5 mph - 0.02 in Snow Light Snow
10:02 PM 33.8 °F 28.6 °F 32.0 °F 93% 29.57 in 2.5 mi East 5.8 mph - 0.01 in Snow Light Snow
10:11 PM 33.8 °F 28.6 °F 32.0 °F 93% 29.57 in 1.8 mi ESE 5.8 mph - 0.03 in Snow Light Snow
10:27 PM 32.0 °F 24.2 °F 32.0 °F 100% 29.58 in 1.2 mi ESE 9.2 mph - 0.05 in Snow Light Snow
10:54 PM 33.1 °F 26.9 °F 32.0 °F 96% 29.61 in 0.8 mi Variable 6.9 mph - 0.09 in Snow Light Snow
11:01 PM 33.8 °F 28.6 °F 32.0 °F 93% 29.60 in 1.0 mi ESE 5.8 mph - 0.01 in Snow Light Snow
11:38 PM 33.8 °F 26.4 °F 32.0 °F 93% 29.62 in 1.2 mi ESE 9.2 mph - 0.07 in Snow Light Snow
11:49 PM 33.8 °F 25.8 °F 32.0 °F 93% 29.62 in 2.5 mi East 10.4 mph - 0.08 in Snow Light Snow
11:54 PM 34.0 °F 26.6 °F 32.0 °F 92% 29.63 in 4.0 mi East 9.2 mph - 0.08 in Snow Light Snow